This is the latest recevied weather packets stored in our database for station/object KJ6APE. If no packets are shown the sender has not sent any weather packets the latest 10 day(s).
| Time | Temp. | Humidity | Pressure | Rain* | Wind** | Luminosity | Snow |
|---|---|---|---|---|---|---|---|
| 1777903949 | 12.78° C | 81% | 1015.2 hPa | 0 mm | - | 59 W/m² | - |
| 1777903645 | 12.78° C | 83% | 1015.3 hPa | 0 mm | - | 57 W/m² | - |
| 1777903340 | 11.67° C | 87% | 1015.2 hPa | 0 mm | - | 54 W/m² | - |
| 1777903038 | 11.11° C | 92% | 1015.1 hPa | 0 mm | - | 49 W/m² | - |
| 1777902734 | 10.56° C | 93% | 1015.1 hPa | 0 mm | - | 45 W/m² | - |
| 1777902432 | 10° C | 93% | 1015.2 hPa | 0 mm | - | 39 W/m² | - |
| 1777902128 | 10° C | 93% | 1014.9 hPa | 0 mm | - | 31 W/m² | - |
| 1777901827 | 9.44° C | 93% | 1015.2 hPa | 0 mm | - | 26 W/m² | - |
| 1777901524 | 9.44° C | 93% | 1014.8 hPa | 0 mm | - | 20 W/m² | - |
| 1777901221 | 9.44° C | 93% | 1014.9 hPa | 0 mm | - | 14 W/m² | - |
| 1777900919 | 9.44° C | 93% | 1014.7 hPa | 0 mm | - | 10 W/m² | - |
| 1777900616 | 9.44° C | 93% | 1014.8 hPa | 0 mm | - | 6 W/m² | - |
| 1777900312 | 9.44° C | 93% | 1014.7 hPa | 0 mm | - | 4 W/m² | - |
| 1777900009 | 9.44° C | 93% | 1014.7 hPa | 0 mm | - | 2 W/m² | - |
| 1777899706 | 10° C | 93% | 1014.7 hPa | 0 mm | - | 1 W/m² | - |
| 1777899404 | 10° C | 94% | 1014.4 hPa | 0 mm | - | 0 W/m² | - |
| 1777899101 | 9.44° C | 94% | 1014.5 hPa | 0 mm | - | 0 W/m² | - |
| 1777898798 | 9.44° C | 93% | 1014.7 hPa | 0 mm | - | 0 W/m² | - |
| 1777898496 | 9.44° C | 94% | 1014.5 hPa | 0 mm | - | 0 W/m² | - |
| 1777898193 | 9.44° C | 93% | 1014.5 hPa | 0 mm | - | 0 W/m² | - |
| 1777897890 | 9.44° C | 93% | 1014.5 hPa | 0 mm | - | 0 W/m² | - |
| 1777897586 | 9.44° C | 93% | 1014.7 hPa | 0 mm | - | 0 W/m² | - |
| 1777897282 | 9.44° C | 93% | 1014.6 hPa | 0 mm | - | 0 W/m² | - |
| 1777896978 | 9.44° C | 93% | 1014.7 hPa | 0 mm | - | 0 W/m² | - |
| 1777896675 | 9.44° C | 93% | 1014.7 hPa | 0 mm | - | 0 W/m² | - |
* Rain latest hour (hover to see other rain measurements)
** Current wind speed in m/s (hover to see current wind gust speed)